When you browse on this site, cookies collect data to enhance your experience and personalize the content and advertising you see.
Visit our Privacy Policy to learn more. By continuing to use the site, you agree to this use of cookies and data.
  • In Hungary
  • List of Countries
  • For 7 days
  • Water Temperature
  • Weather Map
  • News
  • Weather Widgets
  • user-avatar
    Login

    Hourly Weather Selvazzano Dentro

    Today, 19 November, Tuesday

    Time Temperature Precipitation Wind Pressure Humidity
    00:00 +9°C° 0.8 mm 5 mps 760 mmHg 86%
    01:00 +8°C° 0.8 mm 6 mps 760 mmHg 85%
    02:00 +9°C° 0.6 mm 5 mps 760 mmHg 86%
    03:00 +9°C° 0.6 mm 5 mps 760 mmHg 87%
    04:00 +9°C° 0.6 mm 5 mps 760 mmHg 88%
    05:00 +9°C° 0.2 mm 5 mps 760 mmHg 87%
    06:00 +9°C° 0.2 mm 5 mps 760 mmHg 87%
    07:00 +10°C° 0.2 mm 5 mps 760 mmHg 87%
    08:00 +10°C° 0.2 mm 5 mps 760 mmHg 87%
    09:00 +10°C° 0.2 mm 5 mps 760 mmHg 86%
    10:00 +10°C° 0.2 mm 5 mps 760 mmHg 86%
    11:00 +10°C° 0.6 mm 5 mps 760 mmHg 88%
    12:00 +11°C° 0.6 mm 4 mps 760 mmHg 89%
    13:00 +12°C° 0.6 mm 4 mps 760 mmHg 90%
    14:00 +12°C° 0.4 mm 4 mps 760 mmHg 91%
    15:00 +12°C° 0.4 mm 4 mps 760 mmHg 91%
    16:00 +12°C° 0.4 mm 4 mps 759 mmHg 91%
    17:00 +12°C° 0.2 mm 3 mps 760 mmHg 91%
    18:00 +12°C° 0.2 mm 3 mps 760 mmHg 90%
    19:00 +12°C° 0.2 mm 3 mps 760 mmHg 90%
    20:00 +12°C° 0 mm 3 mps 760 mmHg 89%
    21:00 +12°C° 0 mm 3 mps 760 mmHg 89%
    22:00 +12°C° 0 mm 3 mps 760 mmHg 88%
    23:00 +11°C° 0.1 mm 3 mps 760 mmHg 89%

    Tomorrow, 20 November, Wednesday

    Time Temperature Precipitation Wind Pressure Humidity
    00:00 +11°C° 0.1 mm 3 mps 760 mmHg 89%
    01:00 +11°C° 0.1 mm 3 mps 760 mmHg 90%
    02:00 +11°C° 0.3 mm 3 mps 759 mmHg 90%
    03:00 +11°C° 0.3 mm 3 mps 759 mmHg 90%
    04:00 +11°C° 0.3 mm 3 mps 759 mmHg 90%
    05:00 +12°C° 0 mm 2 mps 759 mmHg 90%
    06:00 +12°C° 0 mm 2 mps 758 mmHg 89%
    07:00 +12°C° 0 mm 1 mps 758 mmHg 89%
    08:00 +12°C° 0 mm 1 mps 758 mmHg 86%
    09:00 +13°C° 0 mm 1 mps 758 mmHg 83%
    10:00 +14°C° 0 mm 2 mps 759 mmHg 80%
    11:00 +14°C° 0 mm 2 mps 758 mmHg 77%
    12:00 +15°C° 0 mm 2 mps 758 mmHg 75%
    13:00 +16°C° 0 mm 3 mps 758 mmHg 72%
    14:00 +15°C° 0 mm 2 mps 758 mmHg 75%
    15:00 +15°C° 0 mm 2 mps 758 mmHg 77%
    16:00 +14°C° 0 mm 2 mps 757 mmHg 79%
    17:00 +14°C° 0 mm 2 mps 758 mmHg 82%
    18:00 +13°C° 0 mm 2 mps 758 mmHg 85%
    19:00 +12°C° 0 mm 2 mps 759 mmHg 88%
    20:00 +12°C° 0 mm 2 mps 759 mmHg 88%
    21:00 +10°C° 0 mm 2 mps 759 mmHg 88%
    22:00 +10°C° 0 mm 2 mps 759 mmHg 88%
    23:00 +10°C° 0 mm 2 mps 759 mmHg 89%

    Day after tomorrow, 21 November, Thursday

    Time Temperature Precipitation Wind Pressure Humidity
    00:00 +9°C° 0 mm 2 mps 759 mmHg 89%
    01:00 +10°C° 0 mm 1 mps 759 mmHg 90%
    02:00 +10°C° 0 mm 1 mps 759 mmHg 89%
    03:00 +10°C° 0 mm 1 mps 759 mmHg 89%
    04:00 +10°C° 0 mm 1 mps 759 mmHg 89%
    05:00 +10°C° 0 mm 1 mps 759 mmHg 89%
    06:00 +9°C° 0 mm 1 mps 759 mmHg 89%
    07:00 +9°C° 0 mm 1 mps 759 mmHg 89%
    08:00 +9°C° 0 mm 0 mps 759 mmHg 86%
    09:00 +10°C° 0 mm 0 mps 759 mmHg 83%
    10:00 +10°C° 0 mm 0 mps 759 mmHg 81%
    11:00 +11°C° 0 mm 0 mps 759 mmHg 79%
    12:00 +12°C° 0 mm 0 mps 759 mmHg 76%
    13:00 +12°C° 0 mm 0 mps 759 mmHg 74%
    14:00 +12°C° 0 mm 0 mps 759 mmHg 76%
    15:00 +12°C° 0 mm 0 mps 759 mmHg 78%
    16:00 +12°C° 0 mm 0 mps 759 mmHg 80%
    17:00 +11°C° 0 mm 0 mps 759 mmHg 82%
    18:00 +10°C° 0 mm 0 mps 759 mmHg 84%
    19:00 +10°C° 0 mm 0 mps 759 mmHg 86%
    20:00 +10°C° 0 mm 0 mps 760 mmHg 86%
    21:00 +10°C° 0 mm 0 mps 760 mmHg 86%
    22:00 +9°C° 0 mm 0 mps 760 mmHg 86%
    23:00 +10°C° 0 mm 1 mps 761 mmHg 86%

    22 November, Friday

    Time Temperature Precipitation Wind Pressure Humidity
    00:00 +10°C° 0 mm 1 mps 761 mmHg 87%
    01:00 +10°C° 0 mm 1 mps 761 mmHg 87%
    02:00 +10°C° 0 mm 1 mps 761 mmHg 87%
    03:00 +9°C° 0 mm 1 mps 761 mmHg 87%
    04:00 +9°C° 0 mm 1 mps 760 mmHg 88%
    05:00 +9°C° 0 mm 1 mps 761 mmHg 87%
    06:00 +9°C° 0 mm 1 mps 761 mmHg 87%
    07:00 +9°C° 0 mm 1 mps 761 mmHg 87%
    08:00 +10°C° 0 mm 1 mps 761 mmHg 83%
    09:00 +11°C° 0 mm 1 mps 761 mmHg 79%
    10:00 +11°C° 0 mm 1 mps 761 mmHg 75%
    11:00 +12°C° 0 mm 1 mps 760 mmHg 73%
    12:00 +13°C° 0 mm 1 mps 760 mmHg 71%
    13:00 +13°C° 0 mm 2 mps 760 mmHg 68%
    14:00 +13°C° 0 mm 2 mps 760 mmHg 71%
    15:00 +13°C° 0 mm 2 mps 759 mmHg 74%
    16:00 +12°C° 0 mm 2 mps 759 mmHg 77%
    17:00 +12°C° 0 mm 2 mps 759 mmHg 78%
    18:00 +12°C° 0 mm 2 mps 760 mmHg 79%
    19:00 +12°C° 0 mm 2 mps 760 mmHg 80%
    20:00 +12°C° 0.1 mm 2 mps 760 mmHg 81%
    21:00 +11°C° 0.1 mm 3 mps 760 mmHg 81%
    22:00 +11°C° 0.1 mm 3 mps 760 mmHg 81%
    23:00 +10°C° 0.2 mm 3 mps 760 mmHg 82%

    23 November, Saturday

    Time Temperature Precipitation Wind Pressure Humidity
    00:00 +10°C° 0.2 mm 3 mps 759 mmHg 83%
    01:00 +10°C° 0.2 mm 3 mps 759 mmHg 84%
    02:00 +10°C° 0 mm 3 mps 759 mmHg 84%
    03:00 +10°C° 0 mm 3 mps 758 mmHg 84%
    04:00 +9°C° 0 mm 3 mps 758 mmHg 85%
    05:00 +9°C° 0 mm 3 mps 758 mmHg 86%
    06:00 +9°C° 0 mm 3 mps 758 mmHg 87%
    07:00 +9°C° 0 mm 3 mps 757 mmHg 88%
    08:00 +10°C° 0 mm 3 mps 757 mmHg 86%
    09:00 +11°C° 0 mm 4 mps 757 mmHg 85%
    10:00 +11°C° 0 mm 4 mps 757 mmHg 83%
    11:00 +12°C° 0 mm 4 mps 756 mmHg 83%
    12:00 +12°C° 0 mm 4 mps 756 mmHg 82%
    13:00 +13°C° 0 mm 4 mps 756 mmHg 82%
    14:00 +12°C° 0.3 mm 4 mps 755 mmHg 83%
    15:00 +12°C° 0.3 mm 4 mps 755 mmHg 84%
    16:00 +12°C° 0.3 mm 3 mps 755 mmHg 86%
    17:00 +12°C° 1.4 mm 4 mps 755 mmHg 87%
    18:00 +12°C° 1.4 mm 4 mps 755 mmHg 89%
    19:00 +12°C° 1.4 mm 4 mps 754 mmHg 90%
    20:00 +12°C° 1.1 mm 4 mps 755 mmHg 90%
    21:00 +12°C° 1.1 mm 5 mps 755 mmHg 90%
    22:00 +12°C° 1.1 mm 5 mps 755 mmHg 91%
    23:00 +12°C° 0.8 mm 5 mps 755 mmHg 91%

    24 November, Sunday

    Time Temperature Precipitation Wind Pressure Humidity
    00:00 +12°C° 0.8 mm 5 mps 755 mmHg 91%
    01:00 +12°C° 0.8 mm 5 mps 755 mmHg 92%
    02:00 +12°C° 0.4 mm 5 mps 755 mmHg 91%
    03:00 +12°C° 0.4 mm 5 mps 756 mmHg 91%
    04:00 +12°C° 0.4 mm 5 mps 756 mmHg 90%
    05:00 +12°C° 0.1 mm 4 mps 756 mmHg 89%
    06:00 +12°C° 0.1 mm 4 mps 757 mmHg 88%
    07:00 +12°C° 0.1 mm 3 mps 757 mmHg 87%
    08:00 +13°C° 0.1 mm 4 mps 758 mmHg 86%
    09:00 +13°C° 0.1 mm 4 mps 758 mmHg 85%
    10:00 +14°C° 0.1 mm 4 mps 759 mmHg 84%
    11:00 +14°C° 0.2 mm 4 mps 759 mmHg 83%
    12:00 +14°C° 0.2 mm 3 mps 759 mmHg 83%
    13:00 +14°C° 0.2 mm 3 mps 759 mmHg 82%
    14:00 +15°C° 0 mm 2 mps 760 mmHg 82%
    15:00 +15°C° 0 mm 2 mps 760 mmHg 81%
    16:00 +15°C° 0 mm 1 mps 760 mmHg 81%
    17:00 +14°C° 0 mm 1 mps 761 mmHg 82%
    18:00 +14°C° 0 mm 1 mps 761 mmHg 83%
    19:00 +13°C° 0 mm 1 mps 762 mmHg 84%
    20:00 +13°C° 0 mm 1 mps 762 mmHg 83%
    21:00 +13°C° 0 mm 1 mps 762 mmHg 83%
    22:00 +13°C° 0 mm 1 mps 763 mmHg 83%
    23:00 +12°C° 0 mm 1 mps 763 mmHg 82%
    Show more